Location: Bakov nad Jizerou
(50.4784°N, 14.9394°E)
Time: 06:56:15
(UTC+00:00)

CENTAUR R/B - Pass Details

Date: 16 June 2021
Orbit: 740 x 1447 km, 63.4° (Epoch: 17 July)

Event Time Altitude Azimuth Distance (km) Brightness Sun altitude
Rises 20:08:09 0° 226° (SW) 3,443 5.3 -6.9°
Reaches altitude 10° 20:10:27 10° 227° (SW) 2,587 4.7 -7.1°
Maximum altitude 20:16:32 80° 315° (NW) 1,046 2.8 -7.7°
Drops below altitude 10° 20:23:54 10° 43° (NE) 3,107 5.3 -8.4°
Sets 20:26:54 0° 45° (NE) 4,179 5.9 -8.7°
